DE2MSF Weather Reports


Display with metric or nautical units.
time (UTC)temp
F
wind
direction
speed
MPH
gust
MPH
rain 1hr
in
rain 24hr
in
rain mn
in
humidity
%
barometer
mb
20260906223018 64 102 3.0 6.0 0.00 0.00 0.00 68 1020.2
20260906221518 63 89 4.0 6.0 0.00 0.00 0.00 69 1020.0
20260906214518 63 98 2.0 4.0 0.00 0.00 0.00 69 1020.3
20260906213018 63 96 2.0 6.0 0.00 0.00 0.00 68 1020.4
20260906211519 64 95 2.0 4.0 0.00 0.00 0.00 68 1020.5
20260906210017 64 96 3.0 4.0 0.00 0.00 0.00 67 1020.9
20260906204520 64 105 1.0 4.0 0.00 0.00 0.00 66 1021.0
20260906203016 64 99 2.0 6.0 0.00 0.00 0.00 65 1021.2
20260906201519 64 98 2.0 4.0 0.00 0.00 0.00 65 1021.4
20260906200017 65 113 1.0 4.0 0.00 0.00 0.00 64 1021.6
20260906194517 65 101 1.0 4.0 0.00 0.00 0.00 64 1021.7
20260906193017 65 101 2.0 4.0 0.00 0.00 0.00 62 1021.7
20260906190016 66 86 1.0 4.0 0.00 0.00 0.00 61 1022.0
20260906184517 67 86 2.0 4.0 0.00 0.00 0.00 60 1021.7
20260906183018 67 114 1.0 4.0 0.00 0.00 0.00 59 1021.9
20260906181517 68 94 2.0 4.0 0.00 0.00 0.00 57 1022.1
20260906180016 69 81 2.0 4.0 0.00 0.00 0.00 55 1022.2
20260906174517 70 103 3.0 6.0 0.00 0.00 0.00 54 1022.6
20260906173017 71 94 2.0 6.0 0.00 0.00 0.00 53 1022.2
20260906170016 72 130 4.0 8.0 0.00 0.00 0.00 49 1022.5
20260906163018 72 134 3.0 6.0 0.00 0.00 0.00 49 1022.7
20260906161516 72 98 2.0 6.0 0.00 0.00 0.00 47 1022.8
20260906160017 72 109 3.0 7.0 0.00 0.00 0.00 47 1022.9
20260906154517 71 119 4.0 8.0 0.00 0.00 0.00 47 1023.1
20260906153016 71 125 4.0 8.0 0.00 0.00 0.00 47 1023.2
20260906151517 71 128 4.0 11.0 0.00 0.00 0.00 50 1023.4
20260906150016 71 111 3.0 6.0 0.00 0.00 0.00 49 1023.6
20260906144516 73 208 3.0 7.0 0.00 0.00 0.00 45 1023.7
20260906143016 73 145 4.0 9.0 0.00 0.00 0.00 49 1023.7
20260906141515 72 107 3.0 8.0 0.00 0.00 0.00 50 1023.8
20260906140015 71 152 4.0 11.0 0.00 0.00 0.00 51 1024.1
20260906134515 70 116 5.0 11.0 0.00 0.00 0.00 52 1024.1
20260906133015 71 150 4.0 11.0 0.00 0.00 0.00 49 1024.7
20260906131517 71 169 4.0 9.0 0.00 0.00 0.00 52 1024.8
20260906130014 70 131 5.0 9.0 0.00 0.00 0.00 53 1024.8
20260906124515 69 145 4.0 9.0 0.00 0.00 0.00 54 1024.8
20260906123014 68 119 5.0 11.0 0.00 0.00 0.00 56 1025.2
20260906121515 69 225 3.0 6.0 0.00 0.00 0.00 55 1025.3
20260906120014 69 183 3.0 7.0 0.00 0.00 0.00 55 1025.6
20260906114515 68 182 5.0 11.0 0.00 0.00 0.00 58 1025.7
20260906111514 67 128 4.0 8.0 0.00 0.00 0.00 56 1026.0
20260906110014 68 80 3.0 7.0 0.00 0.00 0.00 56 1026.0
20260906104514 67 118 3.0 6.0 0.00 0.00 0.00 60 1026.0
20260906103014 67 131 4.0 9.0 0.00 0.00 0.00 58 1026.4
20260906101514 66 100 2.0 8.0 0.00 0.00 0.00 59 1026.3
20260906094515 66 148 2.0 7.0 0.00 0.00 0.00 63 1026.6
20260906093013 68 201 2.0 7.0 0.00 0.00 0.00 61 1026.9
20260906091513 65 234 3.0 7.0 0.00 0.00 0.00 64 1027.1
20260906090013 66 199 3.0 7.0 0.00 0.00 0.00 63 1027.1
20260906084513 65 232 3.0 8.0 0.00 0.00 0.00 66 1027.0
20260906081513 63 164 3.0 6.0 0.00 0.00 0.00 68 1027.1
20260906080014 62 182 3.0 8.0 0.00 0.00 0.00 73 1026.9
20260906074515 61 165 2.0 4.0 0.00 0.00 0.00 75 1027.2
20260906073013 60 173 2.0 4.0 0.00 0.00 0.00 77 1026.9
20260906071513 61 226 1.0 4.0 0.00 0.00 0.00 75 1026.7
20260906070013 58 178 1.0 4.0 0.00 0.00 0.00 80 1026.8
20260906064513 56 169 1.0 4.0 0.00 0.00 0.00 84 1026.6
20260906063012 55 166 1.0 4.0 0.00 0.00 0.00 87 1026.6
20260906061515 53 188 2.0 4.0 0.00 0.00 0.00 90 1026.3
20260906060012 52 224 0.0 2.0 0.00 0.00 0.00 91 1026.5
20260906054515 51 125 0.0 2.0 0.00 0.00 0.00 93 1026.3
20260906053012 50 112 0.0 2.0 0.00 0.00 0.00 95 1026.3
20260906051516 49 130 1.0 2.0 0.00 0.00 0.00 96 1026.6
20260906050013 49 0 0.0 2.0 0.00 0.00 0.00 96 1026.6
20260906044513 49 99 0.0 2.0 0.00 0.00 0.00 96 1026.3
20260906043013 49 0 0.0 0.0 0.00 0.00 0.00 96 1026.2
20260906041514 49 200 0.0 2.0 0.00 0.00 0.00 96 1026.2
20260906040012 50 205 0.0 2.0 0.00 0.00 0.00 95 1026.4
20260906033012 50 0 0.0 0.0 0.00 0.00 0.00 94 1026.5
20260906031512 51 0 0.0 0.0 0.00 0.00 0.00 94 1026.5
20260906030012 51 0 0.0 0.0 0.00 0.00 0.00 95 1026.4
20260906020011 51 161 0.0 2.0 0.00 0.00 0.00 92 1026.4
20260906014511 52 0 0.0 0.0 0.00 0.00 0.00 91 1026.2
20260906011511 53 0 0.0 0.0 0.00 0.00 0.00 91 1026.2
20260906010010 53 0 0.0 0.0 0.00 0.00 0.00 90 1026.3
20260906004511 53 250 1.0 4.0 0.00 0.00 0.00 90 1026.4
20260906003011 53 0 0.0 0.0 0.00 0.00 0.00 90 1026.5
20260906001511 53 268 0.0 2.0 0.00 0.00 0.00 89 1026.1
20260905234511 53 260 0.0 2.0 0.00 0.00 0.00 88 1026.0
20260905233010 53 0 0.0 2.0 0.00 0.00 0.00 88 1026.2
20260905231510 54 0 0.0 2.0 0.00 0.00 0.00 87 1026.0
20260905230010 54 292 0.0 2.0 0.00 0.00 0.00 86 1026.2
20260905224512 55 284 0.0 2.0 0.00 0.00 0.00 85 1025.9